This demonstration page uses our WeatherBlox Daily Observations layout. Learn more.

Left ArrowRight Arrow

Hourly Observations for May 13, 2021

Temp ( °F °C ) Dew Point ( °F °C ) Humidity (%) Winds ( mph kmh ) Pressure ( in mb ) Visibility ( mi km ) Precip ( " mm )
12:53 am 00:53 Clear 62 16.7 47 8.3 58 58 ESE 10 17 30.19 1022 10 16 0.00 0.00
1:53 am 01:53 Clear 59 15 48 8.9 67 67 ESE 17 28 30.20 1023 10 16 0.00 0.00
2:53 am 02:53 Clear 57 13.9 47 8.3 69 69 E 12 19 30.19 1023 10 16 0.00 0.00
3:53 am 03:53 Partly Cloudy 55 12.8 47 8.3 74 74 ESE 9 15 30.19 1022 10 16 0.00 0.00
4:53 am 04:53 Cloudy 55 12.8 47 8.3 74 74 ESE 13 20 30.20 1023 10 16 0.00 0.00
5:53 am 05:53 Cloudy 55 12.8 47 8.3 74 74 ESE 13 20 30.20 1023 10 16 0.00 0.00
6:53 am 06:53 Clear 54 12.2 46 7.8 75 75 ESE 10 17 30.21 1023 10 16 0.00 0.00
7:53 am 07:53 Cloudy 56 13.3 47 8.3 72 72 ESE 10 17 30.23 1024 10 16 0.00 0.00
8:53 am 08:53 Cloudy 57 13.9 47 8.3 69 69 E 9 15 30.25 1025 10 16 0.00 0.00
9:53 am 09:53 Cloudy 60 15.6 47 8.3 62 62 E 12 19 30.25 1024 10 16 0.00 0.00
10:53 am 10:53 Mostly Cloudy 63 17.2 47 8.3 56 56 ESE 14 22 30.24 1024 10 16 0.00 0.00
11:53 am 11:53 Cloudy 67 19.4 48 8.9 51 51 E 7 11 30.23 1024 10 16 0.00 0.00
12:53 pm 12:53 Cloudy 70 21.1 49 9.4 47 47 E 10 17 30.20 1023 10 16 0.00 0.00
1:53 pm 13:53 Partly Cloudy 74 23.3 50 10 43 43 ESE 9 15 30.16 1021 10 16 0.00 0.00
2:53 pm 14:53 Sunny 75 23.9 50 10 41 41 SE 12 19 30.12 1020 10 16 0.00 0.00
3:53 pm 15:53 Sunny 77 25 50 10 39 39 E 12 19 30.09 1019 10 16 0.00 0.00
4:53 pm 16:53 Sunny 79 26.1 49 9.4 35 35 S 9 15 30.04 1017 10 16 0.00 0.00
5:53 pm 17:53 Sunny 80 26.7 49 9.4 34 34 ESE 15 24 30.01 1016 10 16 0.00 0.00
6:53 pm 18:53 Sunny 80 26.7 49 9.4 34 34 SE 14 22 30.00 1016 10 16 0.00 0.00
7:53 pm 19:53 Sunny 79 26.1 49 9.4 35 35 SE 18 30 29.99 1016 10 16 0.00 0.00
8:53 pm 20:53 Clear 77 25 49 9.4 37 37 SE 12 19 30.01 1016 10 16 0.00 0.00
9:53 pm 21:53 Clear 75 23.9 50 10 41 41 SE 12 19 30.01 1016 10 16 0.00 0.00
10:53 pm 22:53 Clear 73 22.8 50 10 44 44 SE 13 20 30.03 1017 10 16 0.00 0.00
11:53 pm 23:53 Clear 73 22.8 51 10.6 46 46 SSE 18 30 30.02 1017 10 16 0.00 0.00

Powered by AerisWeather